| time (UTC) | temp C | wind direction | speed KPH | gust KPH | rain 1hr cm | rain 24hr cm | rain mn cm | humidity % | barometer mb |
| 20260508092719 | 3 | 101 | 0.0 | 0.0 | 0.00 | 0.00 | 0.00 | 91 | 1015.0 |
| 20260508092218 | 3 | 101 | 0.0 | 0.0 | 0.00 | 0.00 | 0.00 | 91 | 1014.8 |
| 20260508091715 | 3 | 102 | 0.0 | 0.0 | 0.00 | 0.00 | 0.00 | 91 | 1014.9 |
| 20260508091212 | 3 | 101 | 0.0 | 0.0 | 0.00 | 0.00 | 0.00 | 92 | 1014.9 |
| 20260508090710 | 3 | 102 | 0.0 | 0.0 | 0.00 | 0.00 | 0.00 | 92 | 1015.1 |
| 20260508090207 | 3 | 102 | 0.0 | 0.0 | 0.00 | 0.00 | 0.00 | 92 | 1015.1 |
| 20260508085703 | 3 | 102 | 0.0 | 0.0 | 0.00 | 0.00 | 0.00 | 91 | 1015.1 |
| 20260508085201 | 3 | 102 | 0.0 | 0.0 | 0.00 | 0.00 | 0.00 | 91 | 1015.0 |
| 20260508084656 | 3 | 98 | 0.0 | 0.0 | 0.00 | 0.00 | 0.00 | 91 | 1014.9 |
| 20260508084154 | 3 | 89 | 0.0 | 1.6 | 0.00 | 0.00 | 0.00 | 91 | 1014.8 |
| 20260508083651 | 3 | 93 | 0.0 | 0.0 | 0.00 | 0.00 | 0.00 | 91 | 1015.2 |
| 20260508083149 | 3 | 97 | 0.0 | 0.0 | 0.00 | 0.00 | 0.00 | 91 | 1015.0 |
| 20260508082644 | 3 | 97 | 0.0 | 0.0 | 0.00 | 0.00 | 0.00 | 91 | 1014.8 |
| 20260508082142 | 3 | 97 | 0.0 | 0.0 | 0.00 | 0.00 | 0.00 | 90 | 1014.9 |
| 20260508081639 | 3 | 97 | 0.0 | 0.0 | 0.00 | 0.00 | 0.00 | 90 | 1015.0 |
| 20260508081135 | 3 | 90 | 0.0 | 0.0 | 0.00 | 0.00 | 0.00 | 90 | 1015.0 |
| 20260508080633 | 3 | 96 | 0.0 | 0.0 | 0.00 | 0.00 | 0.00 | 90 | 1014.9 |
| 20260508080131 | 3 | 97 | 0.0 | 0.0 | 0.00 | 0.00 | 0.00 | 90 | 1015.0 |
| 20260508075627 | 3 | 98 | 0.0 | 0.0 | 0.00 | 0.00 | 0.00 | 90 | 1015.1 |
| 20260508075124 | 3 | 98 | 0.0 | 0.0 | 0.00 | 0.00 | 0.00 | 89 | 1015.1 |
| 20260508074622 | 3 | 98 | 0.0 | 0.0 | 0.00 | 0.00 | 0.00 | 89 | 1014.9 |
| 20260508074118 | 3 | 98 | 0.0 | 0.0 | 0.00 | 0.00 | 0.00 | 89 | 1014.7 |
| 20260508073616 | 3 | 93 | 0.0 | 1.6 | 0.00 | 0.00 | 0.00 | 89 | 1014.9 |
| 20260508073114 | 3 | 90 | 0.0 | 0.0 | 0.00 | 0.00 | 0.00 | 89 | 1014.7 |
| 20260508072608 | 3 | 101 | 0.0 | 0.0 | 0.00 | 0.00 | 0.00 | 89 | 1014.9 |
| 20260508072106 | 3 | 98 | 0.0 | 0.0 | 0.00 | 0.00 | 0.00 | 89 | 1014.8 |
| 20260508071604 | 3 | 90 | 0.0 | 0.0 | 0.00 | 0.00 | 0.00 | 89 | 1014.9 |
| 20260508071102 | 3 | 93 | 0.0 | 0.0 | 0.00 | 0.00 | 0.00 | 89 | 1014.8 |
| 20260508070559 | 3 | 97 | 0.0 | 0.0 | 0.00 | 0.00 | 0.00 | 89 | 1014.7 |
| 20260508070057 | 3 | 100 | 0.0 | 0.0 | 0.00 | 0.00 | 0.00 | 89 | 1015.0 |
| 20260508065555 | 3 | 99 | 0.0 | 0.0 | 0.00 | 0.00 | 0.00 | 88 | 1014.9 |
| 20260508065053 | 4 | 100 | 0.0 | 0.0 | 0.00 | 0.00 | 0.00 | 88 | 1014.9 |
| 20260508064550 | 3 | 96 | 0.0 | 0.0 | 0.00 | 0.00 | 0.00 | 88 | 1015.0 |
| 20260508064048 | 3 | 103 | 0.0 | 0.0 | 0.00 | 0.00 | 0.00 | 88 | 1014.9 |
| 20260508063545 | 4 | 98 | 0.0 | 0.0 | 0.00 | 0.00 | 0.00 | 88 | 1014.9 |
| 20260508063043 | 4 | 99 | 0.0 | 0.0 | 0.00 | 0.00 | 0.00 | 88 | 1015.1 |
| 20260508062540 | 4 | 91 | 0.0 | 0.0 | 0.00 | 0.00 | 0.00 | 87 | 1015.2 |
| 20260508062036 | 4 | 99 | 0.0 | 0.0 | 0.00 | 0.00 | 0.00 | 87 | 1015.1 |
| 20260508061534 | 4 | 99 | 0.0 | 0.0 | 0.00 | 0.00 | 0.00 | 86 | 1014.9 |
| 20260508061031 | 4 | 99 | 0.0 | 0.0 | 0.00 | 0.00 | 0.00 | 86 | 1015.0 |
| 20260508060528 | 4 | 99 | 0.0 | 0.0 | 0.00 | 0.00 | 0.00 | 86 | 1015.3 |
| 20260508060025 | 4 | 99 | 0.0 | 0.0 | 0.00 | 0.00 | 0.00 | 85 | 1015.2 |
| 20260508055521 | 4 | 99 | 0.0 | 0.0 | 0.00 | 0.00 | 0.00 | 85 | 1015.1 |
| 20260508055018 | 5 | 98 | 0.0 | 0.0 | 0.00 | 0.00 | 0.00 | 85 | 1015.1 |
| 20260508054514 | 5 | 98 | 0.0 | 0.0 | 0.00 | 0.00 | 0.00 | 84 | 1015.1 |
| 20260508054012 | 5 | 102 | 0.0 | 0.0 | 0.00 | 0.00 | 0.00 | 84 | 1015.1 |
| 20260508053508 | 5 | 103 | 0.0 | 0.0 | 0.00 | 0.00 | 0.00 | 83 | 1015.1 |
| 20260508053007 | 5 | 95 | 0.0 | 0.0 | 0.00 | 0.00 | 0.00 | 84 | 1015.2 |
| 20260508052504 | 5 | 100 | 0.0 | 0.0 | 0.00 | 0.00 | 0.00 | 83 | 1015.3 |
| 20260508052000 | 5 | 98 | 0.0 | 0.0 | 0.00 | 0.00 | 0.00 | 82 | 1015.2 |
| 20260508051455 | 5 | 98 | 0.0 | 0.0 | 0.00 | 0.00 | 0.00 | 82 | 1015.1 |
| 20260508050951 | 5 | 103 | 0.0 | 0.0 | 0.00 | 0.00 | 0.00 | 81 | 1015.5 |
| 20260508050448 | 5 | 103 | 0.0 | 0.0 | 0.00 | 0.00 | 0.00 | 81 | 1015.5 |
| 20260508045945 | 5 | 103 | 0.0 | 0.0 | 0.00 | 0.00 | 0.00 | 80 | 1015.5 |
| 20260508045442 | 5 | 103 | 0.0 | 0.0 | 0.00 | 0.00 | 0.00 | 80 | 1015.5 |
| 20260508044939 | 5 | 103 | 0.0 | 0.0 | 0.00 | 0.00 | 0.00 | 79 | 1015.2 |
| 20260508044437 | 5 | 104 | 0.0 | 0.0 | 0.00 | 0.00 | 0.00 | 78 | 1015.2 |
| 20260508043931 | 5 | 104 | 0.0 | 0.0 | 0.00 | 0.00 | 0.00 | 77 | 1015.3 |
| 20260508043430 | 5 | 103 | 0.0 | 0.0 | 0.00 | 0.00 | 0.00 | 78 | 1015.0 |
| 20260508042926 | 6 | 103 | 0.0 | 0.0 | 0.00 | 0.00 | 0.00 | 77 | 1015.2 |
| 20260508042424 | 6 | 103 | 0.0 | 0.0 | 0.00 | 0.00 | 0.00 | 77 | 1015.0 |
| 20260508041920 | 6 | 103 | 0.0 | 0.0 | 0.00 | 0.00 | 0.00 | 76 | 1015.3 |
| 20260508041417 | 6 | 103 | 0.0 | 0.0 | 0.00 | 0.00 | 0.00 | 76 | 1014.9 |
| 20260508040913 | 6 | 103 | 0.0 | 0.0 | 0.00 | 0.00 | 0.00 | 75 | 1015.1 |
| 20260508040411 | 6 | 103 | 0.0 | 0.0 | 0.00 | 0.00 | 0.00 | 75 | 1015.1 |
| 20260508035909 | 6 | 104 | 0.0 | 0.0 | 0.00 | 0.00 | 0.00 | 75 | 1015.1 |
| 20260508035405 | 6 | 104 | 0.0 | 0.0 | 0.00 | 0.00 | 0.00 | 75 | 1015.0 |
| 20260508034902 | 6 | 104 | 0.0 | 0.0 | 0.00 | 0.00 | 0.00 | 74 | 1015.0 |
| 20260508034400 | 6 | 103 | 0.0 | 0.0 | 0.00 | 0.00 | 0.00 | 74 | 1015.0 |
| 20260508033856 | 6 | 105 | 0.0 | 0.0 | 0.00 | 0.00 | 0.00 | 74 | 1014.9 |
| 20260508033354 | 6 | 105 | 0.0 | 0.0 | 0.00 | 0.00 | 0.00 | 73 | 1015.0 |
| 20260508032852 | 6 | 105 | 0.0 | 0.0 | 0.00 | 0.00 | 0.00 | 73 | 1014.9 |
| 20260508032349 | 7 | 105 | 0.0 | 0.0 | 0.00 | 0.00 | 0.00 | 73 | 1014.8 |
| 20260508031845 | 7 | 105 | 0.0 | 0.0 | 0.00 | 0.00 | 0.00 | 72 | 1014.7 |
| 20260508031342 | 7 | 108 | 0.0 | 0.0 | 0.00 | 0.00 | 0.00 | 71 | 1014.9 |
| 20260508030838 | 7 | 111 | 0.0 | 0.0 | 0.00 | 0.00 | 0.00 | 70 | 1014.8 |
| 20260508030336 | 7 | 104 | 0.0 | 0.0 | 0.00 | 0.00 | 0.00 | 69 | 1014.8 |
| 20260508025832 | 7 | 98 | 0.0 | 0.0 | 0.00 | 0.00 | 0.00 | 68 | 1014.9 |
| 20260508025329 | 8 | 101 | 0.0 | 0.0 | 0.00 | 0.00 | 0.00 | 67 | 1014.6 |
| 20260508024826 | 8 | 105 | 0.0 | 0.0 | 0.00 | 0.00 | 0.00 | 66 | 1014.7 |
| 20260508024323 | 8 | 106 | 0.0 | 0.0 | 0.00 | 0.00 | 0.00 | 65 | 1014.6 |
| 20260508023820 | 8 | 106 | 0.0 | 0.0 | 0.00 | 0.00 | 0.00 | 63 | 1014.5 |
| 20260508023316 | 8 | 105 | 0.0 | 0.0 | 0.00 | 0.00 | 0.00 | 62 | 1015.0 |
| 20260508022813 | 8 | 107 | 0.0 | 0.0 | 0.00 | 0.00 | 0.00 | 60 | 1014.9 |
| 20260508022309 | 9 | 106 | 0.0 | 0.0 | 0.00 | 0.00 | 0.00 | 59 | 1014.8 |
| 20260508021806 | 10 | 92 | 0.0 | 0.0 | 0.00 | 0.00 | 0.00 | 58 | 1014.6 |
| 20260508021302 | 10 | 93 | 0.0 | 0.0 | 0.00 | 0.00 | 0.00 | 55 | 1014.5 |
| 20260508020758 | 10 | 82 | 0.0 | 1.6 | 0.00 | 0.00 | 0.00 | 53 | 1014.7 |
| 20260508020256 | 10 | 91 | 0.0 | 1.6 | 0.00 | 0.00 | 0.00 | 50 | 1014.6 |
| 20260508015753 | 10 | 85 | 1.6 | 3.2 | 0.00 | 0.00 | 0.00 | 53 | 1014.6 |
| 20260508015250 | 10 | 55 | 1.6 | 3.2 | 0.00 | 0.00 | 0.00 | 54 | 1014.3 |
| 20260508014747 | 10 | 86 | 0.0 | 0.0 | 0.00 | 0.00 | 0.00 | 54 | 1014.4 |
| 20260508014244 | 10 | 92 | 0.0 | 1.6 | 0.00 | 0.00 | 0.00 | 51 | 1014.3 |
| 20260508013739 | 10 | 70 | 3.2 | 3.2 | 0.00 | 0.00 | 0.00 | 52 | 1014.1 |
| 20260508013236 | 10 | 94 | 0.0 | 0.0 | 0.00 | 0.00 | 0.00 | 55 | 1014.2 |
| 20260508012734 | 11 | 100 | 0.0 | 0.0 | 0.00 | 0.00 | 0.00 | 52 | 1014.2 |
| 20260508012230 | 11 | 99 | 0.0 | 0.0 | 0.00 | 0.00 | 0.00 | 50 | 1013.8 |
| 20260508011729 | 11 | 82 | 0.0 | 1.6 | 0.00 | 0.00 | 0.00 | 49 | 1013.8 |
| 20260508011226 | 12 | 88 | 0.0 | 1.6 | 0.00 | 0.00 | 0.00 | 46 | 1013.9 |
| 20260508010722 | 12 | 69 | 1.6 | 1.6 | 0.00 | 0.00 | 0.00 | 44 | 1013.8 |
| 20260508010220 | 12 | 101 | 0.0 | 1.6 | 0.00 | 0.00 | 0.00 | 44 | 1014.0 |
| 20260508005717 | 12 | 48 | 1.6 | 1.6 | 0.00 | 0.00 | 0.00 | 45 | 1013.9 |
| 20260508005214 | 12 | 54 | 1.6 | 1.6 | 0.00 | 0.00 | 0.00 | 47 | 1013.9 |
| 20260508004710 | 12 | 95 | 0.0 | 0.0 | 0.00 | 0.00 | 0.00 | 44 | 1013.7 |
| 20260508004206 | 12 | 105 | 0.0 | 0.0 | 0.00 | 0.00 | 0.00 | 45 | 1013.7 |
| 20260508003703 | 12 | 95 | 0.0 | 1.6 | 0.00 | 0.00 | 0.00 | 42 | 1013.7 |
| 20260508003200 | 13 | 68 | 0.0 | 0.0 | 0.00 | 0.00 | 0.00 | 42 | 1013.7 |
| 20260508002656 | 13 | 97 | 0.0 | 0.0 | 0.00 | 0.00 | 0.00 | 41 | 1013.6 |
| 20260508002155 | 13 | 51 | 1.6 | 1.6 | 0.00 | 0.00 | 0.00 | 39 | 1013.5 |
| 20260508001649 | 13 | 67 | 1.6 | 3.2 | 0.00 | 0.00 | 0.00 | 38 | 1013.5 |
| 20260508001145 | 14 | 359 | 4.8 | 4.8 | 0.00 | 0.00 | 0.00 | 37 | 1013.3 |
| 20260508000642 | 14 | 31 | 3.2 | 4.8 | 0.00 | 0.00 | 0.00 | 37 | 1013.5 |
| 20260508000139 | 14 | 341 | 4.8 | 8.0 | 0.00 | 0.00 | 0.00 | 36 | 1013.3 |
| 20260507235636 | 14 | 98 | 4.8 | 9.7 | 0.00 | 0.00 | 0.00 | 35 | 1013.2 |
| 20260507235133 | 15 | 121 | 1.6 | 3.2 | 0.00 | 0.00 | 0.00 | 36 | 1013.3 |
| 20260507234630 | 15 | 351 | 4.8 | 4.8 | 0.00 | 0.00 | 0.00 | 35 | 1013.0 |
| 20260507234126 | 15 | 74 | 3.2 | 8.0 | 0.00 | 0.00 | 0.00 | 35 | 1013.1 |
| 20260507233623 | 15 | 47 | 6.4 | 11.3 | 0.00 | 0.00 | 0.00 | 34 | 1013.1 |
| 20260507233122 | 16 | 345 | 8.0 | 12.9 | 0.00 | 0.00 | 0.00 | 33 | 1012.9 |
| 20260507232618 | 16 | 91 | 3.2 | 3.2 | 0.00 | 0.00 | 0.00 | 32 | 1013.1 |
| 20260507232115 | 16 | 229 | 4.8 | 4.8 | 0.00 | 0.00 | 0.00 | 33 | 1012.9 |
| 20260507231611 | 16 | 294 | 4.8 | 4.8 | 0.00 | 0.00 | 0.00 | 33 | 1012.7 |
| 20260507231109 | 16 | 313 | 6.4 | 8.0 | 0.00 | 0.00 | 0.00 | 32 | 1012.7 |
| 20260507230605 | 16 | 1 | 8.0 | 11.3 | 0.00 | 0.00 | 0.00 | 32 | 1012.8 |
| 20260507225557 | 16 | 294 | 11.3 | 16.1 | 0.00 | 0.00 | 0.00 | 30 | 1012.7 |
| 20260507225054 | 16 | 291 | 6.4 | 9.7 | 0.00 | 0.00 | 0.00 | 30 | 1012.6 |
| 20260507224549 | 17 | 223 | 9.7 | 11.3 | 0.00 | 0.00 | 0.00 | 29 | 1012.5 |
| 20260507224046 | 17 | 237 | 9.7 | 12.9 | 0.00 | 0.00 | 0.00 | 28 | 1012.6 |
| 20260507223542 | 17 | 3 | 4.8 | 4.8 | 0.00 | 0.00 | 0.00 | 28 | 1012.4 |
| 20260507223039 | 17 | 303 | 8.0 | 9.7 | 0.00 | 0.00 | 0.00 | 27 | 1012.4 |
| 20260507222536 | 17 | 261 | 8.0 | 12.9 | 0.00 | 0.00 | 0.00 | 27 | 1012.4 |
| 20260507222033 | 17 | 62 | 3.2 | 8.0 | 0.00 | 0.00 | 0.00 | 30 | 1012.3 |
| 20260507221529 | 17 | 283 | 4.8 | 4.8 | 0.00 | 0.00 | 0.00 | 30 | 1012.3 |
| 20260507221026 | 17 | 70 | 3.2 | 4.8 | 0.00 | 0.00 | 0.00 | 28 | 1012.4 |
| 20260507220523 | 17 | 276 | 9.7 | 11.3 | 0.00 | 0.00 | 0.00 | 27 | 1012.3 |
| 20260507220021 | 17 | 259 | 6.4 | 8.0 | 0.00 | 0.00 | 0.00 | 28 | 1012.3 |
| 20260507215516 | 17 | 114 | 3.2 | 3.2 | 0.00 | 0.00 | 0.00 | 28 | 1012.1 |
| 20260507215015 | 17 | 265 | 12.9 | 14.5 | 0.00 | 0.00 | 0.00 | 27 | 1012.1 |
| 20260507214511 | 17 | 353 | 6.4 | 8.0 | 0.00 | 0.00 | 0.00 | 28 | 1011.9 |
| 20260507214007 | 17 | 250 | 11.3 | 17.7 | 0.00 | 0.00 | 0.00 | 29 | 1012.0 |
| 20260507213504 | 17 | 295 | 8.0 | 9.7 | 0.00 | 0.00 | 0.00 | 28 | 1012.0 |
| 20260507213001 | 17 | 289 | 9.7 | 14.5 | 0.00 | 0.00 | 0.00 | 28 | 1011.8 |
| 20260507212456 | 18 | 267 | 8.0 | 8.0 | 0.00 | 0.00 | 0.00 | 27 | 1011.7 |
| 20260507211954 | 18 | 267 | 8.0 | 8.0 | 0.00 | 0.00 | 0.00 | 27 | 1011.8 |
| 20260507211450 | 18 | 347 | 8.0 | 9.7 | 0.00 | 0.00 | 0.00 | 25 | 1011.8 |
| 20260507210947 | 18 | 267 | 6.4 | 8.0 | 0.00 | 0.00 | 0.00 | 24 | 1011.7 |
| 20260507210444 | 18 | 348 | 12.9 | 17.7 | 0.00 | 0.00 | 0.00 | 27 | 1011.7 |
| 20260507205941 | 18 | 5 | 11.3 | 12.9 | 0.00 | 0.00 | 0.00 | 27 | 1011.7 |
| 20260507205438 | 18 | 253 | 11.3 | 17.7 | 0.00 | 0.00 | 0.00 | 27 | 1011.7 |
| 20260507204934 | 18 | 3 | 4.8 | 4.8 | 0.00 | 0.00 | 0.00 | 27 | 1011.7 |
| 20260507204430 | 18 | 278 | 4.8 | 8.0 | 0.00 | 0.00 | 0.00 | 27 | 1011.8 |
| 20260507203928 | 18 | 275 | 6.4 | 8.0 | 0.00 | 0.00 | 0.00 | 25 | 1011.8 |
| 20260507203426 | 18 | 12 | 12.9 | 16.1 | 0.00 | 0.00 | 0.00 | 27 | 1011.4 |
| 20260507202922 | 18 | 260 | 11.3 | 14.5 | 0.00 | 0.00 | 0.00 | 27 | 1011.5 |
| 20260507202419 | 18 | 262 | 11.3 | 14.5 | 0.00 | 0.00 | 0.00 | 27 | 1011.4 |
| 20260507201914 | 18 | 292 | 16.1 | 20.9 | 0.00 | 0.00 | 0.00 | 26 | 1011.5 |
| 20260507201410 | 18 | 47 | 8.0 | 9.7 | 0.00 | 0.00 | 0.00 | 28 | 1011.7 |
| 20260507200907 | 18 | 319 | 6.4 | 9.7 | 0.00 | 0.00 | 0.00 | 28 | 1011.7 |
| 20260507200402 | 18 | 267 | 14.5 | 22.5 | 0.00 | 0.00 | 0.00 | 28 | 1011.8 |
| 20260507195858 | 18 | 13 | 4.8 | 4.8 | 0.00 | 0.00 | 0.00 | 29 | 1011.8 |
| 20260507195356 | 17 | 12 | 11.3 | 12.9 | 0.00 | 0.00 | 0.00 | 27 | 1011.6 |
| 20260507194853 | 18 | 237 | 17.7 | 22.5 | 0.00 | 0.00 | 0.00 | 27 | 1011.8 |
| 20260507194349 | 18 | 233 | 11.3 | 16.1 | 0.00 | 0.00 | 0.00 | 28 | 1011.7 |
| 20260507193846 | 18 | 286 | 16.1 | 17.7 | 0.00 | 0.00 | 0.00 | 28 | 1011.7 |
| 20260507193343 | 18 | 335 | 17.7 | 22.5 | 0.00 | 0.00 | 0.00 | 28 | 1011.9 |
| 20260507192839 | 18 | 78 | 6.4 | 8.0 | 0.00 | 0.00 | 0.00 | 29 | 1011.9 |
| 20260507192336 | 18 | 36 | 3.2 | 3.2 | 0.00 | 0.00 | 0.00 | 30 | 1011.8 |
| 20260507191832 | 18 | 331 | 1.6 | 3.2 | 0.00 | 0.00 | 0.00 | 30 | 1012.1 |
| 20260507191328 | 18 | 210 | 4.8 | 8.0 | 0.00 | 0.00 | 0.00 | 33 | 1012.4 |
| 20260507190826 | 18 | 50 | 11.3 | 16.1 | 0.00 | 0.00 | 0.00 | 30 | 1012.3 |
| 20260507190324 | 17 | 254 | 6.4 | 11.3 | 0.00 | 0.00 | 0.00 | 34 | 1012.3 |
| 20260507185822 | 17 | 292 | 11.3 | 12.9 | 0.00 | 0.00 | 0.00 | 30 | 1012.3 |
| 20260507185319 | 17 | 271 | 11.3 | 14.5 | 0.00 | 0.00 | 0.00 | 31 | 1012.5 |
| 20260507184816 | 17 | 92 | 4.8 | 8.0 | 0.00 | 0.00 | 0.00 | 33 | 1012.2 |
| 20260507184314 | 18 | 256 | 14.5 | 20.9 | 0.00 | 0.00 | 0.00 | 31 | 1012.4 |
| 20260507183810 | 18 | 258 | 16.1 | 17.7 | 0.00 | 0.00 | 0.00 | 30 | 1012.3 |
| 20260507183308 | 18 | 269 | 9.7 | 12.9 | 0.00 | 0.00 | 0.00 | 32 | 1012.2 |
| 20260507182805 | 18 | 210 | 11.3 | 12.9 | 0.00 | 0.00 | 0.00 | 30 | 1012.3 |
| 20260507182300 | 18 | 226 | 4.8 | 8.0 | 0.00 | 0.00 | 0.00 | 30 | 1012.1 |
| 20260507181757 | 17 | 76 | 1.6 | 3.2 | 0.00 | 0.00 | 0.00 | 31 | 1012.0 |
| 20260507181253 | 17 | 10 | 6.4 | 11.3 | 0.00 | 0.00 | 0.00 | 33 | 1012.3 |
| 20260507180750 | 17 | 246 | 14.5 | 17.7 | 0.00 | 0.00 | 0.00 | 32 | 1011.9 |
| 20260507180247 | 18 | 222 | 8.0 | 11.3 | 0.00 | 0.00 | 0.00 | 31 | 1012.5 |
| 20260507175742 | 17 | 259 | 1.6 | 3.2 | 0.00 | 0.00 | 0.00 | 33 | 1012.1 |
| 20260507175239 | 17 | 350 | 11.3 | 17.7 | 0.00 | 0.00 | 0.00 | 31 | 1012.3 |
| 20260507174737 | 16 | 124 | 3.2 | 4.8 | 0.00 | 0.00 | 0.00 | 35 | 1012.6 |
| 20260507174235 | 17 | 313 | 11.3 | 12.9 | 0.00 | 0.00 | 0.00 | 30 | 1012.6 |
| 20260507173732 | 17 | 223 | 9.7 | 12.9 | 0.00 | 0.00 | 0.00 | 32 | 1012.4 |
| 20260507173229 | 17 | 236 | 8.0 | 9.7 | 0.00 | 0.00 | 0.00 | 33 | 1012.5 |
| 20260507172725 | 17 | 251 | 8.0 | 11.3 | 0.00 | 0.00 | 0.00 | 33 | 1012.5 |
| 20260507172222 | 17 | 294 | 11.3 | 16.1 | 0.00 | 0.00 | 0.00 | 34 | 1012.9 |
| 20260507171722 | 17 | 265 | 12.9 | 14.5 | 0.00 | 0.00 | 0.00 | 33 | 1012.7 |
| 20260507171220 | 17 | 247 | 8.0 | 12.9 | 0.00 | 0.00 | 0.00 | 35 | 1012.7 |
| 20260507170716 | 17 | 301 | 9.7 | 11.3 | 0.00 | 0.00 | 0.00 | 35 | 1012.8 |
| 20260507170214 | 16 | 61 | 6.4 | 9.7 | 0.00 | 0.00 | 0.00 | 38 | 1013.1 |
| 20260507165709 | 17 | 285 | 12.9 | 12.9 | 0.00 | 0.00 | 0.00 | 33 | 1013.0 |
| 20260507165206 | 17 | 286 | 9.7 | 12.9 | 0.00 | 0.00 | 0.00 | 36 | 1013.0 |
| 20260507164702 | 17 | 29 | 4.8 | 8.0 | 0.00 | 0.00 | 0.00 | 36 | 1013.1 |
| 20260507164159 | 17 | 234 | 8.0 | 11.3 | 0.00 | 0.00 | 0.00 | 38 | 1013.1 |
| 20260507163656 | 17 | 327 | 6.4 | 8.0 | 0.00 | 0.00 | 0.00 | 34 | 1013.3 |
| 20260507163154 | 16 | 231 | 9.7 | 11.3 | 0.00 | 0.00 | 0.00 | 38 | 1013.2 |
| 20260507162649 | 16 | 184 | 4.8 | 4.8 | 0.00 | 0.00 | 0.00 | 38 | 1013.4 |
| 20260507162146 | 16 | 211 | 8.0 | 16.1 | 0.00 | 0.00 | 0.00 | 36 | 1013.4 |
| 20260507161642 | 16 | 120 | 4.8 | 9.7 | 0.00 | 0.00 | 0.00 | 38 | 1013.4 |
| 20260507161139 | 16 | 149 | 4.8 | 4.8 | 0.00 | 0.00 | 0.00 | 38 | 1013.4 |
| 20260507160635 | 16 | 175 | 6.4 | 9.7 | 0.00 | 0.00 | 0.00 | 37 | 1013.3 |
| 20260507160132 | 16 | 287 | 9.7 | 11.3 | 0.00 | 0.00 | 0.00 | 35 | 1013.3 |
| 20260507155628 | 17 | 198 | 6.4 | 8.0 | 0.00 | 0.00 | 0.00 | 37 | 1013.4 |
| 20260507155124 | 15 | 111 | 4.8 | 8.0 | 0.00 | 0.00 | 0.00 | 39 | 1013.6 |
| 20260507154621 | 15 | 249 | 12.9 | 16.1 | 0.00 | 0.00 | 0.00 | 38 | 1013.4 |
| 20260507154119 | 16 | 260 | 8.0 | 11.3 | 0.00 | 0.00 | 0.00 | 37 | 1013.6 |
| 20260507153615 | 16 | 326 | 11.3 | 14.5 | 0.00 | 0.00 | 0.00 | 38 | 1013.6 |
| 20260507153112 | 15 | 166 | 4.8 | 8.0 | 0.00 | 0.00 | 0.00 | 39 | 1013.4 |
| 20260507152608 | 15 | 281 | 6.4 | 9.7 | 0.00 | 0.00 | 0.00 | 39 | 1013.6 |
| 20260507152104 | 15 | 41 | 3.2 | 4.8 | 0.00 | 0.00 | 0.00 | 37 | 1013.5 |
| 20260507151600 | 15 | 84 | 3.2 | 3.2 | 0.00 | 0.00 | 0.00 | 40 | 1013.3 |
| 20260507151057 | 14 | 265 | 8.0 | 11.3 | 0.00 | 0.00 | 0.00 | 42 | 1013.7 |
| 20260507150554 | 14 | 149 | 6.4 | 9.7 | 0.00 | 0.00 | 0.00 | 42 | 1013.8 |
| 20260507150051 | 14 | 267 | 3.2 | 4.8 | 0.00 | 0.00 | 0.00 | 43 | 1013.7 |
| 20260507145546 | 14 | 255 | 6.4 | 9.7 | 0.00 | 0.00 | 0.00 | 42 | 1013.8 |
| 20260507145044 | 15 | 228 | 4.8 | 8.0 | 0.00 | 0.00 | 0.00 | 45 | 1013.6 |
| 20260507144540 | 14 | 136 | 4.8 | 4.8 | 0.00 | 0.00 | 0.00 | 45 | 1013.9 |
| 20260507144038 | 13 | 255 | 6.4 | 8.0 | 0.00 | 0.00 | 0.00 | 49 | 1013.7 |
| 20260507143535 | 14 | 242 | 6.4 | 8.0 | 0.00 | 0.00 | 0.00 | 49 | 1013.9 |
| 20260507143032 | 15 | 179 | 3.2 | 3.2 | 0.00 | 0.00 | 0.00 | 47 | 1014.1 |
| 20260507142527 | 15 | 186 | 4.8 | 8.0 | 0.00 | 0.00 | 0.00 | 49 | 1014.3 |
| 20260507142025 | 15 | 140 | 3.2 | 4.8 | 0.00 | 0.00 | 0.00 | 50 | 1014.1 |
| 20260507141521 | 13 | 238 | 4.8 | 9.7 | 0.00 | 0.00 | 0.00 | 53 | 1014.0 |
| 20260507141017 | 14 | 304 | 8.0 | 9.7 | 0.00 | 0.00 | 0.00 | 51 | 1014.3 |
| 20260507140514 | 14 | 87 | 1.6 | 1.6 | 0.00 | 0.00 | 0.00 | 53 | 1014.2 |
| 20260507140012 | 13 | 99 | 0.0 | 0.0 | 0.00 | 0.00 | 0.00 | 53 | 1014.3 |
| 20260507135509 | 13 | 119 | 3.2 | 3.2 | 0.00 | 0.00 | 0.00 | 53 | 1014.5 |
| 20260507135006 | 12 | 244 | 6.4 | 8.0 | 0.00 | 0.00 | 0.00 | 54 | 1014.5 |
| 20260507134502 | 12 | 247 | 6.4 | 8.0 | 0.00 | 0.00 | 0.00 | 56 | 1014.6 |
| 20260507133958 | 13 | 18 | 4.8 | 4.8 | 0.00 | 0.00 | 0.00 | 56 | 1014.5 |
| 20260507133454 | 13 | 150 | 3.2 | 4.8 | 0.00 | 0.00 | 0.00 | 55 | 1014.5 |
| 20260507132953 | 13 | 161 | 4.8 | 8.0 | 0.00 | 0.00 | 0.00 | 54 | 1014.6 |
| 20260507132448 | 13 | 90 | 0.0 | 1.6 | 0.00 | 0.00 | 0.00 | 53 | 1014.6 |
| 20260507131945 | 13 | 149 | 3.2 | 3.2 | 0.00 | 0.00 | 0.00 | 58 | 1014.6 |
| 20260507131442 | 11 | 151 | 1.6 | 3.2 | 0.00 | 0.00 | 0.00 | 68 | 1014.6 |
| 20260507130939 | 11 | 179 | 4.8 | 4.8 | 0.00 | 0.00 | 0.00 | 64 | 1014.8 |
| 20260507130436 | 11 | 143 | 3.2 | 3.2 | 0.00 | 0.00 | 0.00 | 67 | 1014.8 |
| 20260507125935 | 11 | 214 | 1.6 | 3.2 | 0.00 | 0.00 | 0.00 | 68 | 1015.0 |
| 20260507125433 | 11 | 157 | 3.2 | 3.2 | 0.00 | 0.00 | 0.00 | 68 | 1014.7 |
| 20260507124930 | 11 | 186 | 3.2 | 3.2 | 0.00 | 0.00 | 0.00 | 66 | 1014.7 |
| 20260507124426 | 10 | 141 | 3.2 | 3.2 | 0.00 | 0.00 | 0.00 | 71 | 1014.8 |
| 20260507123924 | 10 | 156 | 3.2 | 3.2 | 0.00 | 0.00 | 0.00 | 69 | 1014.7 |
| 20260507123421 | 10 | 141 | 0.0 | 1.6 | 0.00 | 0.00 | 0.00 | 72 | 1015.1 |
| 20260507122918 | 10 | 165 | 1.6 | 3.2 | 0.00 | 0.00 | 0.00 | 73 | 1014.6 |
| 20260507122413 | 10 | 138 | 3.2 | 3.2 | 0.00 | 0.00 | 0.00 | 73 | 1014.8 |
| 20260507121909 | 10 | 117 | 1.6 | 1.6 | 0.00 | 0.00 | 0.00 | 74 | 1014.7 |
| 20260507121405 | 10 | 141 | 0.0 | 1.6 | 0.00 | 0.00 | 0.00 | 75 | 1014.9 |
| 20260507120902 | 10 | 124 | 1.6 | 1.6 | 0.00 | 0.00 | 0.00 | 74 | 1014.5 |
| 20260507120358 | 10 | 118 | 0.0 | 1.6 | 0.00 | 0.00 | 0.00 | 75 | 1014.5 |
| 20260507115854 | 10 | 90 | 1.6 | 1.6 | 0.00 | 0.00 | 0.00 | 74 | 1014.5 |
| 20260507115350 | 10 | 105 | 0.0 | 0.0 | 0.00 | 0.00 | 0.00 | 75 | 1014.5 |
| 20260507114846 | 10 | 107 | 0.0 | 0.0 | 0.00 | 0.00 | 0.00 | 76 | 1014.6 |
| 20260507114343 | 10 | 110 | 0.0 | 0.0 | 0.00 | 0.00 | 0.00 | 77 | 1014.3 |
| 20260507113840 | 9 | 100 | 0.0 | 0.0 | 0.00 | 0.00 | 0.00 | 77 | 1014.8 |
| 20260507113338 | 8 | 101 | 0.0 | 0.0 | 0.00 | 0.00 | 0.00 | 78 | 1014.5 |
| 20260507112835 | 8 | 101 | 0.0 | 0.0 | 0.00 | 0.00 | 0.00 | 78 | 1014.5 |
| 20260507112332 | 7 | 101 | 0.0 | 0.0 | 0.00 | 0.00 | 0.00 | 80 | 1014.5 |
| 20260507111830 | 8 | 101 | 0.0 | 0.0 | 0.00 | 0.00 | 0.00 | 79 | 1014.3 |
| 20260507111326 | 7 | 102 | 0.0 | 0.0 | 0.00 | 0.00 | 0.00 | 80 | 1014.4 |
| 20260507110822 | 7 | 102 | 0.0 | 0.0 | 0.00 | 0.00 | 0.00 | 82 | 1014.4 |
| 20260507110319 | 6 | 103 | 0.0 | 0.0 | 0.00 | 0.00 | 0.00 | 85 | 1014.3 |
| 20260507105816 | 5 | 103 | 0.0 | 0.0 | 0.00 | 0.00 | 0.00 | 89 | 1014.2 |
| 20260507105312 | 5 | 101 | 0.0 | 0.0 | 0.00 | 0.00 | 0.00 | 90 | 1014.1 |
| 20260507104809 | 5 | 102 | 0.0 | 0.0 | 0.00 | 0.00 | 0.00 | 91 | 1014.3 |
| 20260507104306 | 5 | 102 | 0.0 | 0.0 | 0.00 | 0.00 | 0.00 | 92 | 1014.3 |
| 20260507103802 | 5 | 102 | 0.0 | 0.0 | 0.00 | 0.00 | 0.00 | 92 | 1013.9 |
| 20260507103258 | 5 | 102 | 0.0 | 0.0 | 0.00 | 0.00 | 0.00 | 91 | 1013.8 |
| 20260507102755 | 5 | 102 | 0.0 | 0.0 | 0.00 | 0.00 | 0.00 | 91 | 1013.9 |
| 20260507102251 | 5 | 102 | 0.0 | 0.0 | 0.00 | 0.00 | 0.00 | 91 | 1013.9 |
| 20260507101747 | 5 | 103 | 0.0 | 0.0 | 0.00 | 0.00 | 0.00 | 91 | 1013.9 |
| 20260507101242 | 5 | 104 | 0.0 | 0.0 | 0.00 | 0.00 | 0.00 | 91 | 1013.9 |
| 20260507100740 | 5 | 112 | 0.0 | 0.0 | 0.00 | 0.00 | 0.00 | 91 | 1013.9 |
| 20260507100238 | 5 | 111 | 0.0 | 0.0 | 0.00 | 0.00 | 0.00 | 90 | 1013.8 |
| 20260507095736 | 5 | 101 | 0.0 | 0.0 | 0.00 | 0.00 | 0.00 | 90 | 1013.7 |
| 20260507095232 | 5 | 101 | 0.0 | 0.0 | 0.00 | 0.00 | 0.00 | 91 | 1013.5 |
| 20260507094729 | 5 | 101 | 0.0 | 0.0 | 0.00 | 0.00 | 0.00 | 91 | 1013.8 |
| 20260507094226 | 5 | 101 | 0.0 | 0.0 | 0.00 | 0.00 | 0.00 | 90 | 1013.6 |
| 20260507093723 | 5 | 101 | 0.0 | 0.0 | 0.00 | 0.00 | 0.00 | 89 | 1013.8 |
| 20260507093221 | 5 | 101 | 0.0 | 0.0 | 0.00 | 0.00 | 0.00 | 89 | 1013.8 |